Location: Observatoire
(46.1952°N, 5.3391°E)
Time: 02:03:35
(UTC+01:00)

Tiros 1 despin weight - Pass Details

Date: 25 February 2026
Orbit: 556 x 593 km, 48.2° (Epoch: 9 March)

Event Time Altitude Azimuth Distance (km) Brightness Sun altitude
Rises 11:43:23 0° 199° (SSW) 2,760 ? 32.7°
Reaches altitude 10° 11:46:17 10° 179° (S) 1,858 ? 32.9°
Maximum altitude 11:49:02 17° 138° (SE) 1,463 ? 33.1°
Drops below altitude 10° 11:51:46 10° 98° (E) 1,851 ? 33.2°
Sets 11:54:39 0° 78° (ENE) 2,745 ? 33.4°
